San Luis Obispo, CA

2:55 AM PDT on June 24, 2018 (GMT -0700)
San Luis Obispo County-McChesney

Weather History for KSBP - October, 2017

Change the Weather History Date:

Saturday, October 7, 2017

  Actual Average Record
Temperature  
Mean Temperature 75 °F -  
Max Temperature 96 °F 78 °F 100 °F (1996)
Min Temperature 54 °F 50 °F 42 °F (1998)
Cooling Degree Days 10    
Growing Degree Days 25 (Base 50)    
Moisture  
Dew Point 42 °F    
Average Humidity 43    
Maximum Humidity 84    
Minimum Humidity 19    
Precipitation  
Precipitation 0.00 in - - ()
Sea Level Pressure  
Sea Level Pressure 29.82 in    
Wind  
Wind Speed 5 mph (NNW)    
Max Wind Speed 22 mph    
Max Gust Speed 29 mph    
Visibility 10 miles    
Events      
Averages and records for this station are not official NWS values.
T = Trace of Precipitation, MM = Missing Value Source: NWS Daily Summary

Daily Weather History Graph

Daily Weather History Graph

Search for Another Location

Airport or City:

Astronomy

Oct. 07, 2017 Rise Set
Actual Time 7:02 AM PDT 6:37 PM PDT
Civil Twilight 6:37 AM PDT 7:02 PM PDT
Nautical Twilight 6:07 AM PDT 7:32 PM PDT
Astronomical Twilight 5:38 AM PDT 8:01 PM PDT
Moon 8:23 PM PDT (10/7) 8:59 AM PDT (10/7)
Length of Visible Light 12h 25m
Length of Day
11h 35m
Waning Gibbous, 95% of the Moon is Illuminated
Oct 7
Waning Gibbous
Oct 12
Last Quarter
Oct 19
New
Oct 27
First Quarter
Nov 3
Full

Hourly Weather History & Observations

Time (PDT) Temp. Heat Index Dew Point Humidity Pressure Visibility Wind Dir Wind Speed Gust Speed Precip Events Conditions
12:56 AM 57.0 °F - 33.1 °F 40% 29.90 in 10.0 mi Calm Calm - N/A   Clear
1:56 AM 55.9 °F - 34.0 °F 44% 29.90 in 10.0 mi Calm Calm - N/A   Clear
2:56 AM 55.9 °F - 34.0 °F 44% 29.88 in 10.0 mi ESE 4.6 mph - N/A   Clear
3:56 AM 55.9 °F - 34.0 °F 44% 29.86 in 10.0 mi East 4.6 mph - N/A   Clear
4:56 AM 57.0 °F - 34.0 °F 42% 29.85 in 10.0 mi East 4.6 mph - N/A   Clear
5:56 AM 55.9 °F - 34.0 °F 44% 29.85 in 10.0 mi Calm Calm - N/A   Clear
6:56 AM 55.0 °F - 33.1 °F 43% 29.85 in 10.0 mi East 4.6 mph - N/A   Clear
7:56 AM 60.1 °F - 35.1 °F 39% 29.85 in 10.0 mi East 4.6 mph - N/A   Clear
8:56 AM 73.0 °F - 34.0 °F 24% 29.86 in 10.0 mi SE 3.5 mph - N/A   Clear
9:56 AM 82.9 °F - 37.0 °F 19% 29.85 in 10.0 mi Calm Calm - N/A   Clear
10:56 AM 90.0 °F - 46.0 °F 22% 29.84 in 10.0 mi Variable 4.6 mph - N/A   Clear
11:56 AM 95.0 °F 92.5 °F 53.1 °F 24% 29.82 in 10.0 mi WNW 6.9 mph - N/A   Clear
12:56 PM 91.0 °F - 48.0 °F 23% 29.80 in 10.0 mi NW 17.3 mph - N/A   Clear
1:56 PM 89.1 °F - 43.0 °F 20% 29.78 in 10.0 mi NW 17.3 mph - N/A   Clear
2:56 PM 84.0 °F - 41.0 °F 22% 29.78 in 10.0 mi NW 19.6 mph - N/A   Clear
3:56 PM 84.0 °F - 37.9 °F 19% 29.77 in 10.0 mi NW 21.9 mph 28.8 mph N/A   Clear
4:56 PM 78.1 °F - 42.1 °F 28% 29.76 in 10.0 mi NNW 13.8 mph - N/A   Clear
5:56 PM 72.0 °F - 46.0 °F 40% 29.76 in 10.0 mi NW 12.7 mph - N/A   Clear
6:56 PM 64.0 °F - 50.0 °F 60% 29.76 in 10.0 mi WNW 13.8 mph - N/A   Clear
7:56 PM 61.0 °F - 51.1 °F 70% 29.77 in 10.0 mi West 6.9 mph - N/A   Clear
8:56 PM 57.0 °F - 51.1 °F 81% 29.78 in 10.0 mi WNW 6.9 mph - N/A   Clear
9:56 PM 55.9 °F - 51.1 °F 84% 29.78 in 8.0 mi WNW 5.8 mph - N/A   Clear
10:56 PM 55.9 °F - 50.0 °F 80% 29.78 in 9.0 mi ESE 3.5 mph - N/A   Clear
11:56 PM 54.0 °F - 46.9 °F 77% 29.78 in 9.0 mi Calm Calm - N/A   Clear